Flag for Germany Weather past 2 weeks in Burg, Saxony-Anhalt, Germany

Now
42 °F

Overcast.


Feels Like: 37 °F
Forecast: 34 / 39 °F
Wind: 7 mph from Southwest

Location: Magdeburg

Current Time: Jan 28, 2015 at 1:19:07 PM

Latest Report: Jan 28, 2015 at 1:00 PM


Visibility: 16 mi

Pressure: 29.75 "Hg

Humidity: 74%

Dew point: 34 °F

Location of BurgLocation

Historic Weather in Burg — Graph

°F

Burg temperature yesterday

Maximum temperature yesterday: 42 °F (at 2:00 PM)
Minimum temperature yesterday: 36 °F (at 9:00 PM)
Average temperature yesterday: 39 °F

Past Weeks' High & Low Weather Summary

 TemperatureHumidityPressure
High54 °F (Jan 13, 2:00 PM)98% (Jan 20, 9:00 AM)30.34 "Hg (Jan 20, 9:00 AM)
Low24 °F (Jan 19, 7:00 AM)58% (Jan 13, 5:00 PM)29.55 "Hg (Jan 15, 7:00 PM)
Average36 °F86%29.98 "Hg
* Reported Jan 13 12:00 Noon — Jan 28 12:00 Noon, Burg, Weather by CustomWeather, © 2014

Note: Actual official high and low records may vary slightly from our data, if they occured in-between our weather recording intervals... More about our weather records

Advertising

Burg weather history for previous 24 hours

 ConditionsComfort  
Time TempWeatherWind HumidityBarometerVisibility
12:00 PM
Jan 28
41 °FOvercast.7 mph73%29.81 "Hg19 mi
11:00 AM40 °FOvercast.6 mph77%29.86 "Hg16 mi
9:00 AM37 °FOvercast.3 mph84%29.93 "Hg25 mi
8:00 AM35 °FOvercast.2 mph90%29.95 "Hg19 mi
7:00 AM35 °FOvercast.2 mph91%29.98 "Hg16 mi
6:00 AM36 °FPassing clouds.2 mph92%29.99 "Hg10 mi
5:00 AM37 °FDrizzle. Overcast.3 mph91%30.02 "Hg6 mi
3:00 AM37 °FOvercast.2 mph91%30.06 "Hg6 mi
2:00 AM36 °FOvercast.2 mph90%30.07 "Hg9 mi
1:00 AM37 °FLow clouds.2 mph92%30.08 "Hg7 mi
12:00 AM36 °FLow clouds.2 mph92%30.08 "Hg11 mi
11:00 PM
Jan 27
36 °FLow clouds.3 mph91%30.08 "Hg10 mi
9:00 PM36 °FPassing clouds.3 mph91%30.08 "Hg10 mi
8:00 PM37 °FPassing clouds.3 mph88%30.07 "Hg14 mi
7:00 PM37 °FPassing clouds.3 mph87%30.06 "Hg16 mi
6:00 PM38 °FPassing clouds.3 mph84%30.05 "Hg17 mi
5:00 PM40 °FPassing clouds.3 mph79%30.03 "Hg22 mi
3:00 PM42 °FPartly sunny.5 mph76%30.00 "Hg28 mi
2:00 PM42 °FPartly sunny.5 mph71%29.99 "Hg28 mi
1:00 PM41 °FPartly sunny.5 mph76%29.99 "Hg28 mi
Weather by CustomWeather, © 2014

See weather overviewHow to use our weather pages